Location: Capelle
(50.3413°N, 1.9974°E)
Time: 23:30:38
(UTC+00:00)

SKYMED 2 - Pass Details

Date: 12 January 2026
Orbit: 621 x 624 km, 97.9° (Epoch: 7 February)

Event Time Altitude Azimuth Distance (km) Brightness Sun altitude
Exits shadow 18:32:50 13° 5° (N) 1,819 5.8 -21.5°
Maximum altitude 18:36:39 57° 289° (WNW) 735 4.1 -22.1°
Drops below altitude 10° 18:40:53 10° 211° (SSW) 1,988 6.6 -22.8°
Sets 18:43:05 0° 207° (SSW) 2,890 7.5 -23.1°
